Theta_e
281 282 281 281 281 281 281 282 284 285 286 286 286 287 287 288 288 288 288 289 289 289 290 291 291 292 292 293 294 294 294 294 291 293 295 295 293 297 298 301 298 301 299
280 281 281 281 281 280 282 283 284 284 285 286 286 286 287 287 287 287 287 287 287 287 288 289 289 291 290 292 293 292 292 294 293 291 292 290 291 289 293 295 292 293 294
280 280 280 280 279 279 281 283 284 284 284 285 285 285 285 285 285 286 286 286 286 287 288 288 288 289 288 290 291 292 293 294 294 293 293 291 289 288 286 286 287 287 290
280 279 279 278 279 281 281 283 283 284 284 284 284 284 285 285 286 286 286 286 286 287 287 287 288 288 288 289 290 291 293 292 294 294 293 294 290 286 286 286 286 286 287
275 272 275 275 277 281 280 282 283 284 284 284 282 281 281 283 285 285 287 286 285 285 285 286 286 286 286 287 287 288 289 289 291 292 293 290 287 286 287 288 286 285 285
271 272 268 269 280 278 280 282 283 283 283 281 279 279 279 281 285 288 287 283 283 282 282 283 284 284 285 287 287 289 288 289 291 292 293 290 289 290 288 287 285 285 285
270 268 267 271 280 279 281 281 282 282 282 276 277 277 276 278 285 287 285 281 280 281 280 281 282 283 283 284 286 288 286 287 288 290 293 294 289 291 291 286 286 286 285
267 268 264 271 279 280 281 281 281 281 281 273 276 275 275 278 284 286 284 280 281 280 280 280 281 283 283 284 283 283 282 282 282 284 286 289 294 294 293 293 289 285 285
268 268 268 271 279 280 280 280 281 280 280 271 275 273 272 275 283 286 283 280 280 279 280 280 282 281 284 283 281 280 279 279 282 283 284 288 293 294 290 288 286 286 282
270 270 269 270 278 278 280 280 280 280 279 275 276 271 271 272 281 285 283 277 276 278 278 280 282 282 283 283 279 278 276 276 278 278 279 280 283 285 287 288 289 287 283
273 272 271 270 273 274 277 280 280 279 280 270 270 270 271 274 279 283 284 280 279 279 279 278 280 283 283 282 282 280 278 278 278 277 277 278 278 278 279 282 283 285 285
273 274 274 274 275 276 276 279 270 270 270 268 268 271 273 274 278 281 282 282 281 278 278 279 279 280 281 281 279 280 280 278 276 276 275 275 276 276 277 278 279 279 282
272 273 273 273 275 276 275 274 272 271 270 271 272 270 270 274 274 279 279 280 279 276 278 279 279 279 278 275 279 278 275 275 275 274 273 274 275 277 279 279 280 279 277
271 272 272 273 272 272 276 275 274 271 270 272 271 270 269 272 273 274 275 273 275 273 273 271 275 275 276 275 273 273 273 273 273 273 273 274 275 275 275 277 277 276 275
271 271 272 273 273 273 274 274 275 273 275 272 270 270 267 268 274 279 277 272 269 273 265 265 268 268 268 268 269 270 270 271 271 271 271 272 272 273 273 275 275 275 273
272 271 272 273 272 272 273 272 280 280 281 282 281 276 276 279 280 281 280 279 278 275 262 261 265 266 265 265 264 265 265 267 267 269 269 269 268 269 270 271 272 273 272
273 272 272 273 273 272 273 274 274 279 282 282 282 281 280 279 279 279 279 278 276 270 258 259 260 262 263 263 263 263 261 262 262 264 266 268 268 268 269 269 269 269 267
272 271 273 273 273 274 274 274 274 275 275 273 276 277 278 278 278 279 277 269 260 261 255 255 255 257 259 259 260 259 260 262 262 262 262 262 263 265 266 265 266 266 266
271 271 272 273 273 274 274 273 272 270 268 264 263 270 267 277 278 277 274 259 257 255 254 254 254 255 255 255 256 257 257 258 257 259 258 260 260 263 260 260 261 261 263
271 271 272 272 273 273 273 273 272 270 268 267 265 265 258 262 261 258 255 255 255 254 254 254 252 252 252 253 253 253 257 257 257 258 257 258 258 259 258 258 258 260 260
271 271 272 272 272 273 274 273 272 271 270 268 268 264 268 262 262 258 257 256 257 255 254 253 252 251 250 250 251 253 256 256 254 255 256 255 255 256 255 257 258 258 260
272 271 272 272 273 273 273 274 273 272 271 269 262 262 277 261 261 261 260 259 258 255 254 255 253 252 253 254 254 254 254 254 252 253 255 255 256 255 254 256 256 255 255
271 271 271 272 273 273 273 273 273 272 271 270 268 267 266 264 262 262 261 259 256 254 251 253 253 251 248 250 251 254 257 256 255 254 256 255 255 254 252 254 254 253 252
271 271 271 272 273 273 273 273 273 272 272 270 268 268 267 265 263 263 261 257 255 252 253 254 254 255 250 249 249 249 250 251 251 253 255 256 254 254 253 250 250 250 252
271 271 271 272 272 273 273 273 272 272 271 270 269 268 267 264 262 261 259 258 256 254 253 252 252 255 255 253 251 250 253 257 253 254 254 254 254 253 252 251 247 247 246
271 271 272 272 272 273 273 272 272 271 271 270 269 268 267 265 264 261 259 258 257 255 254 253 253 254 254 252 254 255 257 259 255 255 255 255 254 251 251 250 248 249 249
Wind_Speed
5 3 3 4 4 5 4 5 5 7 8 9 10 10 10 9 9 9 10 11 12 12 12 13 14 14 11 11 10 9 10 10 14 11 9 7 3 7 7 4 5 5 4
5 4 4 3 4 4 5 6 6 7 8 9 9 9 9 9 9 10 10 10 12 13 14 14 15 11 14 13 10 14 13 13 12 18 12 5 6 2 3 4 2 4 3
5 5 4 3 3 5 5 6 6 7 8 8 8 9 9 10 10 9 10 12 12 14 13 13 14 13 15 11 12 12 12 11 12 14 13 4 4 2 0 1 2 2 3
6 5 4 3 4 4 5 5 6 7 8 8 8 9 9 9 9 9 10 11 12 11 12 12 13 13 14 14 12 13 12 11 11 13 10 9 5 2 2 2 1 2 3
5 4 5 3 4 4 5 5 6 6 7 7 6 7 8 8 6 9 10 7 10 11 10 10 11 12 17 17 10 12 10 11 12 13 10 5 4 3 4 3 2 2 2
6 6 4 3 3 4 5 5 5 5 6 5 5 7 8 6 14 17 8 5 7 7 8 9 10 11 12 17 19 21 14 12 14 11 7 4 6 5 4 4 3 3 2
6 5 5 5 5 4 5 4 4 5 4 3 5 6 7 7 17 14 12 4 6 7 8 10 10 7 10 10 12 12 6 7 8 6 11 9 6 8 7 6 4 3 3
7 6 5 5 5 5 5 3 4 3 4 3 5 5 5 6 18 14 11 4 5 7 9 10 11 11 9 9 5 3 3 3 6 6 7 8 6 5 10 9 7 7 7
8 8 7 6 8 6 6 4 4 3 3 3 3 5 5 6 17 16 9 5 6 7 8 10 9 10 16 13 4 3 2 3 5 8 11 17 5 9 11 10 8 11 3
8 9 7 7 10 7 6 4 5 3 4 3 5 4 5 5 14 15 10 3 5 6 7 9 16 11 17 15 6 4 3 5 5 6 7 11 12 12 12 2 11 11 6
6 7 6 7 8 6 4 3 5 4 4 3 3 4 5 4 8 13 12 4 5 6 6 7 7 18 17 16 14 6 5 4 6 5 6 7 8 10 8 8 10 5 3
7 7 7 8 7 5 6 5 3 3 2 3 3 3 3 4 8 9 10 9 8 5 6 5 6 14 16 19 11 15 14 10 5 7 7 9 7 7 7 11 13 13 12
7 7 7 6 7 6 5 5 2 3 2 2 1 0 3 3 4 9 9 8 7 4 4 8 11 14 15 12 20 20 13 7 7 8 8 7 6 7 7 8 11 14 18
7 7 6 7 6 5 4 3 4 4 3 3 2 1 2 3 4 3 3 3 6 5 6 5 8 11 14 12 9 11 8 8 7 6 6 6 6 8 9 7 9 9 12
6 6 6 6 7 5 5 5 5 4 5 3 3 3 2 2 3 5 2 2 2 1 4 4 5 6 7 8 7 8 8 8 8 7 7 7 7 7 8 6 8 10 10
8 6 7 6 6 5 5 2 10 9 11 10 8 6 2 3 6 6 5 3 4 3 5 3 4 5 6 6 6 6 7 8 6 6 7 7 7 7 7 8 8 9 10
10 8 6 7 7 7 6 6 6 6 10 9 10 7 6 2 3 4 6 7 6 6 4 3 3 4 4 4 5 5 4 5 5 6 6 6 6 7 8 8 8 8 9
9 8 8 8 8 8 8 8 6 8 9 4 1 5 5 3 3 4 3 5 4 6 3 2 2 2 3 3 4 3 4 5 6 6 6 6 6 6 7 7 7 8 7
9 7 8 7 8 8 8 7 7 5 5 3 0 3 1 6 1 3 3 3 3 1 0 2 1 1 2 2 3 3 3 4 4 4 4 5 5 6 7 6 7 8 7
8 9 10 8 7 8 8 9 8 7 6 6 5 4 1 3 1 1 1 2 2 2 3 3 2 2 2 2 2 3 4 5 4 5 5 5 5 5 6 6 5 7 7
7 8 11 8 9 10 10 10 9 9 8 7 7 5 12 4 5 4 4 3 4 3 3 3 3 3 2 2 2 3 4 4 3 4 4 4 4 5 4 5 6 7 8
8 8 10 10 9 9 10 9 9 9 9 8 4 4 17 3 4 4 4 4 4 4 3 3 3 3 4 4 4 4 4 4 2 2 4 4 4 5 4 5 5 4 5
8 9 9 9 9 10 9 10 10 9 9 8 7 7 4 5 5 5 5 4 4 4 2 3 4 2 1 2 3 3 5 5 4 3 5 4 4 4 3 5 4 4 4
9 10 10 10 9 10 10 10 10 11 10 9 8 8 8 6 6 7 6 5 4 3 3 3 3 5 3 3 2 2 3 3 3 4 5 6 5 5 5 4 4 4 4
9 10 10 11 11 11 11 10 10 10 9 9 9 8 8 7 6 5 5 5 5 5 5 4 3 5 6 7 5 5 5 7 5 5 4 5 7 7 5 5 4 3 4
9 10 10 9 10 10 11 11 10 10 10 9 9 8 9 8 7 7 6 7 6 5 5 4 5 7 7 4 6 7 7 8 7 7 5 6 7 5 5 6 6 4 6
Wind_Direction
214 217 252 284 294 297 289 286 288 300 294 289 289 284 281 283 279 276 276 279 273 273 269 266 265 263 261 262 259 266 262 258 270 277 269 272 279 284 288 302 336 336 43
200 193 230 268 294 294 287 295 295 294 292 293 291 292 294 288 283 280 280 278 275 278 276 271 268 267 266 265 258 256 255 254 262 279 272 264 242 213 289 301 1 345 7
186 199 217 251 283 288 284 291 300 294 293 297 299 298 294 285 285 280 276 277 275 273 273 276 278 276 272 267 264 264 261 258 259 265 265 239 223 142 203 349 315 72 349
192 202 221 233 266 283 286 288 298 295 298 296 298 297 295 297 288 283 278 274 271 275 276 273 276 273 272 272 266 264 262 265 262 263 252 248 217 173 167 172 214 73 319
182 191 220 224 259 280 284 285 291 293 293 297 310 312 310 310 302 300 290 298 299 293 291 283 277 272 270 265 268 267 266 260 252 255 248 215 181 166 186 179 135 102 360
190 214 202 217 232 275 276 282 289 296 302 312 323 312 305 305 316 321 327 310 303 307 310 308 294 286 280 280 275 262 255 263 265 259 286 190 201 199 163 165 134 156 155
195 208 204 210 229 240 257 278 282 293 297 307 314 310 305 313 339 337 339 316 317 320 320 318 316 296 288 282 280 254 262 322 341 296 262 231 206 197 178 167 161 136 142
197 208 203 217 215 238 252 257 271 280 294 297 299 305 310 326 339 347 345 327 326 330 328 320 318 320 312 310 287 266 288 307 333 344 332 274 244 182 205 194 154 106 93
206 209 204 207 213 230 240 247 267 291 308 295 287 304 335 328 338 348 354 329 327 328 322 324 326 332 351 354 340 343 346 340 325 345 353 12 357 189 158 129 137 139 124
207 210 196 193 212 220 227 232 265 273 281 299 310 313 315 319 332 343 355 322 330 330 324 335 341 5 5 18 6 3 16 347 353 359 14 11 24 53 41 86 152 148 132
190 193 194 191 208 199 214 210 258 263 267 303 318 324 323 322 319 340 350 349 334 324 335 342 342 4 19 21 25 26 37 6 13 27 40 31 33 38 35 51 50 69 97
187 192 192 189 205 194 212 217 231 228 259 281 318 332 323 330 336 342 346 345 350 341 350 347 348 18 15 33 33 39 45 38 33 48 48 44 39 50 50 64 65 63 51
182 196 187 177 199 187 192 191 197 203 188 234 229 353 311 323 323 346 340 355 3 360 358 11 19 24 31 16 37 37 27 32 42 53 44 45 31 36 60 69 73 74 63
198 189 180 180 193 191 188 185 181 191 191 204 178 218 304 320 315 313 318 339 16 19 3 347 29 34 39 30 21 23 22 27 35 38 49 39 42 42 45 39 71 76 72
203 178 189 190 184 195 194 191 191 203 186 188 198 165 151 311 292 327 334 281 316 330 358 350 15 8 18 18 20 22 19 20 29 32 37 43 49 50 47 49 65 70 82
197 186 191 184 181 183 184 197 218 208 209 209 166 154 197 257 321 347 356 38 79 84 39 16 17 14 26 11 14 14 24 18 15 28 40 47 50 50 57 51 62 73 85
204 187 179 181 179 180 182 178 180 194 193 198 191 183 164 162 317 341 31 40 52 66 75 34 39 19 10 22 19 22 13 5 340 39 46 47 64 64 69 69 73 81 72
199 184 184 188 182 181 184 186 174 178 190 185 254 165 167 181 258 251 131 36 17 26 62 92 63 29 13 21 18 23 11 22 28 25 44 41 48 68 72 63 59 81 82
186 193 189 184 185 184 179 175 180 174 169 182 192 236 313 163 80 93 68 129 158 126 103 87 107 52 46 37 30 28 38 42 28 40 32 42 33 77 69 63 76 65 84
193 191 183 182 177 182 180 180 182 183 180 187 199 201 206 84 133 269 27 116 127 148 159 142 142 115 96 83 55 39 52 36 39 48 46 50 47 62 84 78 54 79 68
183 184 185 179 187 189 188 189 185 186 189 192 208 182 187 168 188 174 170 171 167 174 179 169 160 139 138 122 97 75 72 67 46 58 57 52 44 72 44 70 88 94 108
179 181 185 194 189 190 191 189 183 188 188 186 176 196 199 162 172 178 173 180 186 180 180 165 167 171 174 162 149 126 116 114 96 78 86 75 73 73 62 64 67 68 75
180 180 186 194 193 189 187 188 183 185 186 184 170 181 183 176 180 177 182 182 170 171 176 160 156 177 204 176 162 156 147 165 167 144 120 109 100 93 79 97 97 84 73
185 186 186 190 190 190 191 188 187 186 181 177 175 178 180 178 183 186 175 160 158 167 163 169 170 165 165 170 165 159 140 131 131 133 124 123 117 105 98 90 89 87 100
187 188 189 188 189 190 189 190 185 182 180 176 178 178 174 168 167 174 164 157 155 158 177 178 169 171 175 169 166 158 160 131 131 131 110 105 122 118 108 99 110 83 87
192 193 192 188 190 190 190 189 188 181 181 179 174 175 173 176 175 166 163 164 167 172 168 172 181 178 175 167 163 153 143 142 137 133 125 124 126 117 112 115 108 107 113